OK,106,77,785,106,2014-10-01T01:40:00,0,28072555,192466
OK,106,77,785,106,2014-10-01T01:45:00,0,28073003,192466
OK,106,77,785,106,2014-10-01T01:50:00,0,28073451,192466
OK,106,77,785,106,2014-10-01T01:55:00,0,28073773,192466
OK,106,77,785,106,2014-10-01T02:00:00,0,28074217,192466
OK,106,77,785,106,2014-10-01T02:05:00,0,28074660,192466
OK,134,61,785,134,2014-10-01T02:15:00,1,28075106,192466
OK,143,57,785,143,2014-10-01T02:20:00,2,28075555,192466
OK,152,53,785,152,2014-10-01T02:25:00,1,28075997,192466
OK,152,53,785,152,2014-10-01T02:30:00,0,28076387,192466
OK,152,53,785,152,2014-10-01T02:35:00,0,28076836,192466
OK,152,53,785,152,2014-10-01T02:40:00,0,28077285,192466
OK,152,53,785,152,2014-10-01T02:45:00,0,28078137,192466
OK,152,53,785,152,2014-10-01T02:55:00,0,28078586,192466
OK,152,53,785,152,2014-10-01T03:00:00,0,28079031,192466
OK,152,53,785,152,2014-10-01T03:05:00,0,28079479,192466
OK,152,53,785,152,2014-10-01T03:10:00,0,28079922,192466
OK,145,56,785,145,2014-10-01T03:20:00,2,28080705,192466
OK,145,56,785,145,2014-10-01T03:25:00,2,28081154,192466
OK,159,51,785,159,2014-10-01T03:30:00,1,28081602,192466
OK,159,51,785,159,2014-10-01T03:35:00,0,28082050,192466
OK,159,51,785,159,2014-10-01T03:40:00,0,28082499,192466
OK,159,51,785,159,2014-10-01T03:45:00,0,28082931,192466
OK,124,66,785,124,2014-10-01T03:50:00,1,28083364,192466
OK,123,66,785,123,2014-10-01T03:55:00,2,28083813,192466
OK,123,66,785,123,2014-10-01T04:00:00,2,28084262,192466
OK,125,65,785,125,2014-10-01T04:05:00,1,28084703,192466
OK,125,65,785,125,2014-10-01T04:10:00,0,28085128,192466
OK,149,54,785,149,2014-10-01T04:15:00,3,28085577,192466
OK,149,54,785,149,2014-10-01T04:20:00,3,28086022,192466
OK,146,56,785,146,2014-10-01T04:25:00,5,28086471,192466
OK,146,56,785,146,2014-10-01T04:30:00,6,28086913,192466
OK,145,56,785,145,2014-10-01T04:35:00,1,28087362,192466
OK,137,59,785,137,2014-10-01T04:40:00,7,28087807,192466
OK,148,55,785,148,2014-10-01T04:45:00,5,28088256,192466
OK,130,62,785,130,2014-10-01T04:50:00,1,28088680,192466
OK,142,57,785,142,2014-10-01T04:55:00,2,28089127,192466
OK,150,54,785,150,2014-10-01T05:00:00,2,28089559,192466
OK,141,58,785,141,2014-10-01T05:05:00,7,28090008,192466
OK,145,56,785,145,2014-10-01T05:10:00,4,28090457,192466
OK,140,58,785,140,2014-10-01T05:15:00,3,28090801,192466
OK,138,59,785,138,2014-10-01T05:20:00,0,28091250,192466
OK,143,57,785,143,2014-10-01T05:25:00,9,28091696,192466
OK,145,56,785,145,2014-10-01T05:30:00,7,28092116,192466
OK,138,59,785,138,2014-10-01T05:35:00,4,28092564,192466
OK,142,57,785,142,2014-10-01T05:40:00,5,28093009,192466
OK,142,57,785,142,2014-10-01T05:45:00,6,28093446,192466
OK,139,58,785,139,2014-10-01T05:50:00,2,28093881,192466
OK,157,52,785,157,2014-10-01T06:00:00,5,28094739,192466
OK,158,51,785,158,2014-10-01T06:05:00,9,28095186,192466
OK,160,51,785,160,2014-10-01T06:10:00,8,28095633,192466
OK,144,56,785,144,2014-10-01T06:20:00,4,28096495,192466
OK,141,58,785,141,2014-10-01T06:25:00,3,28096944,192466
OK,131,62,785,131,2014-10-01T06:30:00,3,28097378,192466
OK,154,53,785,154,2014-10-01T06:35:00,9,28097827,192466
OK,164,49,785,164,2014-10-01T06:40:00,7,28098276,192466
OK,141,58,785,141,2014-10-01T06:45:00,0,28098713,192466
OK,155,52,785,155,2014-10-01T06:50:00,4,28099157,192466
OK,146,56,785,146,2014-10-01T07:00:00,6,28099948,192466
OK,145,56,785,145,2014-10-01T07:10:00,4,28100704,192466
OK,129,63,785,129,2014-10-01T07:20:00,5,28101524,192466
OK,132,62,785,132,2014-10-01T07:25:00,4,28101973,192466
OK,137,59,785,137,2014-10-01T07:30:00,3,28102409,192466
OK,145,56,785,145,2014-10-01T07:35:00,4,28102858,192466
OK,149,54,785,149,2014-10-01T07:40:00,3,28103285,192466
OK,125,65,785,125,2014-10-01T07:45:00,1,28103732,192466
OK,142,57,785,142,2014-10-01T07:50:00,4,28104177,192466
OK,156,52,785,156,2014-10-01T07:55:00,4,28104622,192466
OK,152,53,785,152,2014-10-01T08:00:00,1,28105061,192466
OK,152,53,785,152,2014-10-01T08:05:00,0,28105508,192466
OK,133,61,785,133,2014-10-01T08:10:00,2,28105948,192466
OK,135,60,785,135,2014-10-01T08:15:00,4,28106396,192466
OK,148,55,785,148,2014-10-01T08:20:00,9,28107223,192466
OK,143,57,785,143,2014-10-01T08:30:00,4,28107672,192466
OK,144,56,785,144,2014-10-01T08:35:00,4,28108560,192466
OK,154,53,785,154,2014-10-01T08:40:00,7,28109006,192466
OK,134,61,785,134,2014-10-01T08:50:00,0,28109437,192466
OK,153,53,785,153,2014-10-01T09:00:00,4,28110229,192466
OK,152,53,785,152,2014-10-01T09:05:00,4,28111101,192466
OK,132,62,785,132,2014-10-01T09:10:00,3,28111542,192466
OK,160,51,785,160,2014-10-01T09:20:00,4,28111979,192466
OK,153,53,785,153,2014-10-01T09:30:00,0,28112769,192466
OK,171,47,785,171,2014-10-01T09:40:00,2,28113642,192466
OK,207,39,785,207,2014-10-01T09:45:00,1,28114523,192466
OK,207,39,785,207,2014-10-01T09:50:00,0,28114883,192466
OK,173,47,785,173,2014-10-01T10:00:00,1,28115326,192466
OK,157,52,785,157,2014-10-01T10:10:00,2,28116187,192466
OK,143,57,785,143,2014-10-01T10:20:00,7,28117044,192466
OK,139,58,785,139,2014-10-01T10:30:00,5,28117918,192466
OK,141,58,785,141,2014-10-01T10:35:00,7,28118366,192466
OK,155,52,785,155,2014-10-01T10:40:00,5,28119257,192466
OK,151,54,785,151,2014-10-01T10:45:00,9,28119703,192466
OK,136,60,785,136,2014-10-01T10:50:00,8,28120151,192466
OK,131,62,785,131,2014-10-01T10:55:00,2,28120599,192466
OK,127,64,785,127,2014-10-01T11:00:00,0,28120999,192466
OK,137,59,785,137,2014-10-01T11:05:00,2,28121431,192466
OK,130,62,785,130,2014-10-01T11:10:00,1,28121872,192466
OK,130,62,785,130,2014-10-01T11:20:00,3,28122318,192466
OK,136,60,785,136,2014-10-01T11:25:00,2,28123208,192466
OK,157,52,785,157,2014-10-01T11:30:00,1,28123647,192466
OK,157,52,785,157,2014-10-01T11:40:00,10,28124089,192466
OK,149,54,785,149,2014-10-01T11:50:00,3,28124940,192466
OK,149,54,785,149,2014-10-01T11:55:00,3,28125818,192466
OK,141,58,785,141,2014-10-01T12:00:00,4,28126177,192466
OK,122,67,785,122,2014-10-01T12:05:00,5,28126619,192466
OK,118,69,785,118,2014-10-01T12:10:00,1,28127068,192466
OK,141,58,785,141,2014-10-01T12:20:00,5,28127517,192466
OK,145,56,785,145,2014-10-01T12:30:00,4,28128394,192466
OK,139,58,785,139,2014-10-01T12:35:00,3,28129278,192466
OK,134,61,785,134,2014-10-01T12:40:00,4,28129715,192466
OK,138,59,785,138,2014-10-01T12:45:00,5,28130161,192466
OK,151,54,785,151,2014-10-01T12:50:00,10,28130596,192466
OK,128,63,785,128,2014-10-01T13:00:00,6,28131038,192466
OK,140,58,785,140,2014-10-01T13:05:00,6,28131924,192466
OK,140,58,785,140,2014-10-01T13:10:00,6,28132363,192466
OK,145,56,785,145,2014-10-01T13:15:00,7,28132810,192466
OK,145,56,785,145,2014-10-01T13:20:00,3,28133248,192466
OK,141,58,785,141,2014-10-01T13:25:00,5,28133696,192466
OK,138,59,785,138,2014-10-01T13:30:00,4,28134135,192466
OK,148,55,785,148,2014-10-01T13:35:00,2,28134584,192466
OK,147,55,785,147,2014-10-01T13:40:00,6,28135006,192466
OK,146,56,785,146,2014-10-01T13:45:00,7,28135452,192466
OK,162,50,785,162,2014-10-01T13:50:00,7,28135890,192466
OK,136,60,785,136,2014-10-01T13:55:00,12,28136338,192466
OK,135,60,785,135,2014-10-01T14:00:00,9,28136779,192466
OK,145,56,785,145,2014-10-01T14:05:00,1,28137227,192466
OK,120,68,785,120,2014-10-01T14:10:00,3,28137663,192466
OK,159,51,785,159,2014-10-01T14:15:00,4,28138110,192466
OK,160,51,785,160,2014-10-01T14:20:00,4,28138541,192466
OK,140,58,785,140,2014-10-01T14:25:00,5,28138987,192466
OK,149,54,785,149,2014-10-01T14:30:00,6,28139401,192466
OK,165,49,785,165,2014-10-01T14:35:00,3,28139847,192466
OK,139,58,785,139,2014-10-01T14:40:00,6,28140291,192466
OK,137,59,785,137,2014-10-01T14:45:00,7,28140738,192466
OK,128,63,785,128,2014-10-01T14:50:00,5,28141168,192466
OK,133,61,785,133,2014-10-01T15:00:00,3,28141613,192466
OK,133,61,785,133,2014-10-01T15:10:00,7,28142490,192466
OK,142,57,785,142,2014-10-01T15:15:00,2,28143366,192466
OK,131,62,785,131,2014-10-01T15:25:00,6,28143814,192466
OK,129,63,785,129,2014-10-01T15:30:00,5,28144263,192466
OK,135,60,785,135,2014-10-01T15:35:00,8,28145099,192466
OK,144,56,785,144,2014-10-01T15:40:00,6,28145547,192466
OK,122,67,785,122,2014-10-01T15:45:00,2,28145996,192466
OK,123,66,785,123,2014-10-01T15:55:00,3,28146445,192466
OK,123,66,785,123,2014-10-01T16:00:00,1,28146889,192466
OK,151,54,785,151,2014-10-01T16:05:00,2,28147746,192466
OK,146,56,785,146,2014-10-01T16:10:00,4,28148155,192466
OK,114,71,785,114,2014-10-01T16:20:00,2,28148596,192466
OK,141,58,785,141,2014-10-01T16:30:00,0,28149484,192466
OK,127,64,785,127,2014-10-01T16:40:00,1,28150359,192466
OK,114,71,785,114,2014-10-01T16:50:00,3,28151226,192466
OK,114,71,785,114,2014-10-01T16:55:00,3,28151675,192466
OK,122,67,785,122,2014-10-01T17:00:00,1,28152124,192466
OK,136,60,785,136,2014-10-01T17:05:00,2,28152570,192466
OK,109,75,785,109,2014-10-01T17:10:00,1,28153017,192466
OK,129,63,785,129,2014-10-01T17:20:00,1,28153466,192466
OK,129,63,785,129,2014-10-01T17:30:00,0,28154325,192466
OK,152,53,785,152,2014-10-01T17:35:00,1,28154772,192466
OK,129,63,785,129,2014-10-01T17:40:00,2,28155216,192466
OK,124,66,785,124,2014-10-01T17:50:00,1,28156082,192466
OK,124,66,785,124,2014-10-01T17:55:00,0,28156531,192466
OK,124,66,785,124,2014-10-01T18:00:00,0,28156976,192466
OK,135,60,785,135,2014-10-01T18:05:00,1,28157847,192466
OK,135,60,785,135,2014-10-01T18:10:00,1,28158293,192466
OK,147,55,785,147,2014-10-01T18:15:00,3,28158738,192466
OK,154,53,785,154,2014-10-01T18:20:00,4,28159183,192466
OK,154,53,785,154,2014-10-01T18:25:00,4,28159521,192466
OK,139,58,785,139,2014-10-01T18:30:00,2,28159967,192466
OK,143,57,785,143,2014-10-01T18:35:00,1,28160416,192466
OK,143,57,785,143,2014-10-01T18:40:00,0,28160861,192466
OK,113,72,785,113,2014-10-01T18:45:00,1,28161303,192466
OK,113,72,785,113,2014-10-01T18:50:00,3,28161728,192466
OK,115,71,785,115,2014-10-01T19:00:00,0,28162169,192466
OK,115,71,785,115,2014-10-01T19:05:00,0,28163005,192466
OK,115,71,785,115,2014-10-01T19:10:00,0,28163450,192466
OK,82,99,785,82,2014-10-01T19:15:00,1,28163899,192466
OK,82,99,785,82,2014-10-01T19:20:00,1,28164334,192466
OK,82,99,785,82,2014-10-01T19:30:00,0,28164779,192466
OK,82,99,785,82,2014-10-01T19:35:00,0,28165652,192466
OK,82,99,785,82,2014-10-01T19:40:00,0,28166094,192466
OK,82,99,785,82,2014-10-01T19:45:00,0,28166456,192466
OK,108,75,785,108,2014-10-01T19:50:00,1,28166904,192466
OK,108,75,785,108,2014-10-01T19:55:00,1,28167335,192466
OK,100,81,785,100,2014-10-01T20:00:00,2,28167767,192466
OK,117,69,785,117,2014-10-01T20:05:00,2,28168215,192466
OK,136,60,785,136,2014-10-01T20:10:00,0,28168660,192466
OK,136,60,785,136,2014-10-01T20:15:00,0,28169109,192466
OK,136,60,785,136,2014-10-01T20:20:00,0,28169557,192466
OK,136,60,785,136,2014-10-01T20:25:00,0,28169985,192466
OK,136,60,785,136,2014-10-01T20:30:00,0,28170428,192466
OK,135,60,785,135,2014-10-01T20:35:00,1,28170876,192466
OK,135,60,785,135,2014-10-01T20:40:00,1,28171313,192466
OK,135,60,785,135,2014-10-01T20:45:00,0,28171759,192466
OK,127,64,785,127,2014-10-01T20:50:00,1,28172207,192466
OK,127,64,785,127,2014-10-01T20:55:00,0,28172653,192466
OK,127,64,785,127,2014-10-01T21:00:00,0,28173099,192466
OK,135,60,785,135,2014-10-01T21:05:00,1,28173548,192466
OK,135,60,785,135,2014-10-01T21:10:00,0,28173989,192466
OK,135,60,785,135,2014-10-01T21:15:00,0,28174438,192466
OK,135,60,785,135,2014-10-01T21:20:00,0,28174864,192466
OK,109,75,785,109,2014-10-01T21:25:00,1,28175260,192466
OK,109,75,785,109,2014-10-01T21:30:00,1,28175709,192466
OK,109,75,785,109,2014-10-01T21:35:00,0,28176158,192466
OK,109,75,785,109,2014-10-01T21:45:00,0,28176607,192466
OK,109,75,785,109,2014-10-01T21:50:00,0,28177403,192466
OK,109,75,785,109,2014-10-01T21:55:00,0,28177849,192466
OK,109,75,785,109,2014-10-01T22:00:00,0,28178298,192466
OK,140,58,785,140,2014-10-01T22:05:00,1,28178746,192466
OK,140,58,785,140,2014-10-01T22:10:00,1,28179183,192466
OK,140,58,785,140,2014-10-01T22:15:00,0,28179622,192466
OK,140,58,785,140,2014-10-01T22:20:00,0,28180069,192466
OK,140,58,785,140,2014-10-01T22:25:00,0,28180468,192466
OK,140,58,785,140,2014-10-01T22:30:00,0,28180916,192466
OK,140,58,785,140,2014-10-01T22:35:00,0,28181340,192466
OK,140,58,785,140,2014-10-01T22:40:00,0,28181788,192466
OK,140,58,785,140,2014-10-01T22:45:00,0,28182235,192466
OK,140,58,785,140,2014-10-01T22:50:00,0,28182684,192466
OK,140,58,785,140,2014-10-01T22:55:00,0,28183101,192466
OK,140,58,785,140,2014-10-01T23:00:00,0,28183534,192466
OK,140,58,785,140,2014-10-01T23:05:00,0,28183979,192466
OK,140,58,785,140,2014-10-01T23:10:00,0,28184428,192466
OK,140,58,785,140,2014-10-01T23:15:00,0,28184863,192466
OK,140,58,785,140,2014-10-01T23:20:00,0,28185311,192466
OK,140,58,785,140,2014-10-01T23:25:00,0,28185742,192466
OK,140,58,785,140,2014-10-01T23:30:00,0,28186134,192466
OK,140,58,785,140,2014-10-01T23:35:00,0,28186583,192466
OK,140,58,785,140,2014-10-01T23:40:00,0,28186981,192466
OK,140,58,785,140,2014-10-01T23:45:00,0,28187423,192466
OK,140,58,785,140,2014-10-01T23:50:00,0,28187872,192466
OK,140,58,785,140,2014-10-01T23:55:00,0,28188313,192466
OK,140,58,785,140,2014-10-02T00:00:00,0,28188749,192466
OK,154,53,785,154,2014-10-02T00:10:00,1,28189198,192466
OK,154,53,785,154,2014-10-02T00:20:00,0,28190069,192466
OK,154,53,785,154,2014-10-02T00:25:00,0,28190871,192466
OK,154,53,785,154,2014-10-02T00:35:00,0,28191320,192466
OK,154,53,785,154,2014-10-02T00:40:00,0,28192075,192466
OK,154,53,785,154,2014-10-02T00:45:00,0,28192512,192466
OK,154,53,785,154,2014-10-02T00:50:00,0,28192953,192466
OK,154,53,785,154,2014-10-02T00:55:00,0,28193320,192466
OK,124,66,785,124,2014-10-02T01:00:00,2,28193768,192466
OK,124,66,785,124,2014-10-02T01:10:00,0,28194217,192466
OK,124,66,785,124,2014-10-02T01:15:00,0,28194666,192466
OK,124,66,785,124,2014-10-02T01:20:00,0,28195351,192466
OK,124,66,785,124,2014-10-02T01:30:00,0,28195800,192466
OK,124,66,785,124,2014-10-02T01:35:00,0,28196533,192466
OK,124,66,785,124,2014-10-02T01:40:00,0,28196962,192466
OK,124,66,785,124,2014-10-02T01:45:00,0,28197405,192466
OK,124,66,785,124,2014-10-02T01:50:00,0,28197853,192466
OK,124,66,785,124,2014-10-02T01:55:00,0,28198301,192466
OK,124,66,785,124,2014-10-02T02:05:00,0,28198750,192466
OK,124,66,785,124,2014-10-02T02:10:00,0,28199565,192466
OK,124,66,785,124,2014-10-02T02:15:00,0,28200006,192466
OK,124,66,785,124,2014-10-02T02:20:00,0,28200449,192466
OK,124,66,785,124,2014-10-02T02:25:00,0,28200898,192466
OK,124,66,785,124,2014-10-02T02:30:00,0,28201329,192466
OK,124,66,785,124,2014-10-02T02:45:00,0,28202227,192466
OK,124,66,785,124,2014-10-02T02:50:00,0,28202669,192466
OK,124,66,785,124,2014-10-02T02:55:00,0,28203117,192466
OK,136,60,785,136,2014-10-02T03:00:00,3,28203554,192466
OK,127,64,785,127,2014-10-02T03:10:00,2,28204001,192466
OK,127,64,785,127,2014-10-02T03:25:00,0,28204450,192466
OK,127,64,785,127,2014-10-02T03:30:00,0,28204899,192466
OK,154,53,785,154,2014-10-02T03:35:00,2,28205335,192466
OK,154,53,785,154,2014-10-02T03:40:00,0,28205774,192466
OK,138,59,785,138,2014-10-02T03:45:00,1,28206159,192466
OK,138,59,785,138,2014-10-02T03:55:00,0,28207055,192466
OK,132,62,785,132,2014-10-02T04:00:00,5,28207481,192466
OK,145,56,785,145,2014-10-02T04:10:00,1,28207923,192466
OK,145,56,785,145,2014-10-02T04:15:00,1,28208799,192466
OK,138,59,785,138,2014-10-02T04:20:00,1,28209239,192466
OK,131,62,785,131,2014-10-02T04:30:00,4,28209686,192466
OK,129,63,785,129,2014-10-02T04:35:00,1,28210558,192466
OK,129,63,785,129,2014-10-02T04:40:00,0,28210999,192466
OK,129,63,785,129,2014-10-02T04:45:00,0,28211427,192466
OK,129,63,785,129,2014-10-02T04:50:00,0,28211806,192466
OK,161,50,785,161,2014-10-02T05:00:00,1,28212254,192466
OK,139,58,785,139,2014-10-02T05:10:00,0,28213132,192466
OK,224,36,785,224,2014-10-02T05:15:00,2,28213581,192466
OK,224,36,785,224,2014-10-02T05:20:00,0,28214019,192466
OK,138,59,785,138,2014-10-02T05:30:00,1,28214881,192466
OK,148,55,785,148,2014-10-02T05:40:00,1,28215746,192466
OK,148,55,785,148,2014-10-02T05:45:00,1,28216193,192466
OK,148,55,785,148,2014-10-02T05:50:00,0,28216974,192466
OK,148,55,785,148,2014-10-02T06:00:00,7,28217421,192466
OK,149,54,785,149,2014-10-02T06:05:00,6,28217867,192466
OK,137,59,785,137,2014-10-02T06:10:00,1,28218309,192466
OK,143,57,785,143,2014-10-02T06:15:00,6,28219178,192466
OK,137,59,785,137,2014-10-02T06:20:00,7,28219555,192466
OK,137,59,785,137,2014-10-02T06:25:00,11,28220000,192466
OK,141,58,785,141,2014-10-02T06:30:00,11,28220439,192466
OK,145,56,785,145,2014-10-02T06:40:00,5,28220883,192466
OK,146,56,785,146,2014-10-02T06:45:00,5,28221551,192466
OK,143,57,785,143,2014-10-02T07:00:00,5,28222144,192466
OK,137,59,785,137,2014-10-02T07:10:00,6,28222593,192466
OK,142,57,785,142,2014-10-02T07:15:00,3,28223461,192466
OK,142,57,785,142,2014-10-02T07:20:00,0,28223907,192466
OK,165,49,785,165,2014-10-02T07:25:00,1,28224263,192466
OK,165,49,785,165,2014-10-02T07:30:00,1,28224711,192466
OK,146,56,785,146,2014-10-02T07:40:00,2,28225160,192466
OK,138,59,785,138,2014-10-02T07:50:00,5,28225931,192466
OK,113,72,785,113,2014-10-02T08:00:00,0,28226821,192466
OK,157,52,785,157,2014-10-02T08:05:00,5,28227685,192466
OK,131,62,785,131,2014-10-02T08:10:00,1,28228059,192466
OK,165,49,785,165,2014-10-02T08:20:00,1,28228493,192466
OK,137,59,785,137,2014-10-02T08:25:00,1,28229352,192466
OK,137,59,785,137,2014-10-02T08:30:00,0,28229719,192466
OK,143,57,785,143,2014-10-02T08:40:00,0,28230151,192466
OK,152,53,785,152,2014-10-02T08:50:00,5,28230966,192466
OK,155,52,785,155,2014-10-02T08:55:00,1,28231838,192466
OK,142,57,785,142,2014-10-02T09:00:00,1,28232189,192466
OK,142,57,785,142,2014-10-02T09:10:00,0,28232629,192466
OK,138,59,785,138,2014-10-02T09:20:00,0,28233078,192466
OK,150,54,785,150,2014-10-02T09:25:00,8,28233951,192466
OK,160,51,785,160,2014-10-02T09:30:00,3,28234291,192466
OK,159,51,785,159,2014-10-02T09:35:00,2,28234733,192466
OK,148,55,785,148,2014-10-02T09:40:00,1,28235163,192466
OK,146,56,785,146,2014-10-02T09:45:00,1,28235609,192466
OK,146,56,785,146,2014-10-02T09:50:00,0,28236054,192466
OK,159,51,785,159,2014-10-02T09:55:00,5,28236499,192466
OK,133,61,785,133,2014-10-02T10:00:00,0,28236909,192466
OK,133,61,785,133,2014-10-02T10:05:00,0,28237350,192466
OK,144,56,785,144,2014-10-02T10:10:00,4,28237798,192466
OK,150,54,785,150,2014-10-02T10:20:00,3,28238246,192466
OK,118,69,785,118,2014-10-02T10:25:00,1,28239135,192466
OK,118,69,785,118,2014-10-02T10:30:00,0,28239568,192466
OK,140,58,785,140,2014-10-02T10:35:00,5,28240014,192466
OK,149,54,785,149,2014-10-02T10:40:00,4,28240459,192466
OK,164,49,785,164,2014-10-02T10:50:00,0,28240907,192466
OK,150,54,785,150,2014-10-02T11:00:00,4,28241787,192466
OK,148,55,785,148,2014-10-02T11:10:00,7,28242632,192466
OK,136,60,785,136,2014-10-02T11:15:00,5,28243081,192466
OK,139,58,785,139,2014-10-02T11:20:00,7,28243848,192466
OK,129,63,785,129,2014-10-02T11:25:00,2,28244276,192466
OK,131,62,785,131,2014-10-02T11:30:00,0,28244722,192466
OK,143,57,785,143,2014-10-02T11:40:00,2,28245171,192466
OK,143,57,785,143,2014-10-02T11:45:00,0,28246026,192466
OK,151,54,785,151,2014-10-02T11:50:00,3,28246464,192466
OK,154,53,785,154,2014-10-02T11:55:00,5,28246912,192466
OK,158,51,785,158,2014-10-02T12:00:00,4,28247358,192466
OK,147,55,785,147,2014-10-02T12:05:00,1,28247792,192466
OK,147,55,785,147,2014-10-02T12:10:00,0,28248237,192466
OK,141,58,785,141,2014-10-02T12:20:00,0,28248685,192466
OK,136,60,785,136,2014-10-02T12:25:00,5,28249556,192466
OK,141,58,785,141,2014-10-02T12:30:00,1,28249978,192466
OK,143,57,785,143,2014-10-02T12:35:00,9,28250373,192466
OK,134,61,785,134,2014-10-02T12:45:00,6,28251153,192466
OK,147,55,785,147,2014-10-02T13:20:00,7,28251698,192466
OK,147,55,785,147,2014-10-02T13:30:00,3,28252282,192466
OK,177,46,785,177,2014-10-02T13:35:00,2,28252724,192466
OK,147,55,785,147,2014-10-02T13:40:00,0,28253141,192466
OK,133,61,785,133,2014-10-02T13:45:00,6,28253590,192466
OK,121,67,785,121,2014-10-02T13:50:00,4,28253998,192466
OK,138,59,785,138,2014-10-02T13:55:00,6,28254316,192466
OK,141,58,785,141,2014-10-02T14:10:00,5,28254893,192466
OK,146,56,785,146,2014-10-02T14:15:00,7,28255342,192466
OK,155,52,785,155,2014-10-02T14:20:00,7,28255771,192466
OK,161,50,785,161,2014-10-02T14:25:00,3,28256219,192466
OK,142,57,785,142,2014-10-02T14:30:00,3,28256647,192466
OK,131,62,785,131,2014-10-02T14:35:00,7,28257096,192466
OK,137,59,785,137,2014-10-02T14:40:00,1,28257537,192466
OK,131,62,785,131,2014-10-02T14:45:00,5,28257985,192466
OK,144,56,785,144,2014-10-02T14:50:00,3,28258418,192466
OK,136,60,785,136,2014-10-02T14:55:00,4,28258864,192466
OK,134,61,785,134,2014-10-02T15:00:00,2,28259313,192466
OK,133,61,785,133,2014-10-02T15:05:00,2,28259760,192466
OK,139,58,785,139,2014-10-02T15:10:00,6,28260193,192466
OK,140,58,785,140,2014-10-02T15:15:00,6,28260642,192466
OK,143,57,785,143,2014-10-02T15:20:00,2,28261082,192466
OK,150,54,785,150,2014-10-02T15:25:00,0,28261464,192466
OK,150,54,785,150,2014-10-02T15:30:00,0,28261894,192466
OK,135,60,785,135,2014-10-02T15:35:00,5,28262341,192466
OK,131,62,785,131,2014-10-02T15:40:00,2,28262787,192466
OK,132,62,785,132,2014-10-02T15:45:00,0,28263225,192466
OK,132,62,785,132,2014-10-02T15:50:00,0,28263666,192466
OK,132,62,785,132,2014-10-02T15:55:00,0,28264068,192466
OK,132,62,785,132,2014-10-02T16:00:00,0,28264517,192466
OK,126,64,785,126,2014-10-02T16:05:00,2,28264955,192466
OK,129,63,785,129,2014-10-02T16:10:00,3,28265395,192466
OK,128,63,785,128,2014-10-02T16:15:00,0,28265791,192466
OK,118,69,785,118,2014-10-02T16:20:00,2,28266240,192466
OK,110,74,785,110,2014-10-02T16:25:00,2,28266689,192466
OK,109,75,785,109,2014-10-02T16:30:00,1,28267012,192466
OK,109,75,785,109,2014-10-02T16:35:00,0,28267461,192466
OK,109,75,785,109,2014-10-02T16:40:00,0,28267910,192466
OK,117,69,785,117,2014-10-02T16:45:00,1,28268352,192466
OK,117,69,785,117,2014-10-02T16:50:00,1,28268801,192466
OK,122,67,785,122,2014-10-02T16:55:00,2,28269250,192466
OK,110,74,785,110,2014-10-02T17:00:00,1,28269685,192466
OK,110,74,785,110,2014-10-02T17:05:00,0,28270134,192466
OK,110,74,785,110,2014-10-02T17:10:00,0,28270568,192466
OK,110,74,785,110,2014-10-02T17:15:00,0,28271017,192466
OK,110,74,785,110,2014-10-02T17:20:00,0,28271447,192466
OK,110,74,785,110,2014-10-02T17:25:00,0,28271895,192466
OK,186,44,785,186,2014-10-02T17:30:00,2,28272331,192466
OK,186,44,785,186,2014-10-02T17:35:00,0,28272772,192466
OK,186,44,785,186,2014-10-02T17:40:00,0,28273220,192466
OK,186,44,785,186,2014-10-02T17:45:00,0,28273666,192466
OK,190,43,785,190,2014-10-02T17:55:00,1,28274115,192466
OK,127,64,785,127,2014-10-02T18:00:00,1,28274889,192466
OK,133,61,785,133,2014-10-02T18:05:00,2,28275328,192466
OK,140,58,785,140,2014-10-02T18:10:00,0,28275773,192466
OK,140,58,785,140,2014-10-02T18:15:00,0,28276219,192466
OK,152,53,785,152,2014-10-02T18:20:00,2,28276615,192466
OK,152,53,785,152,2014-10-02T18:30:00,0,28277064,192466
OK,152,53,785,152,2014-10-02T18:40:00,0,28277513,192466
OK,132,62,785,132,2014-10-02T18:45:00,2,28278310,192466
OK,142,57,785,142,2014-10-02T19:00:00,0,28278759,192466
OK,134,61,785,134,2014-10-02T19:05:00,1,28279208,192466
OK,134,61,785,134,2014-10-02T19:10:00,0,28279653,192466
OK,134,61,785,134,2014-10-02T19:15:00,0,28280094,192466
OK,134,61,785,134,2014-10-02T19:20:00,0,28280541,192466
OK,117,69,785,117,2014-10-02T19:25:00,1,28280945,192466
OK,117,69,785,117,2014-10-02T19:35:00,0,28281843,192466
OK,117,69,785,117,2014-10-02T19:40:00,0,28282274,192466
OK,117,69,785,117,2014-10-02T19:45:00,0,28282723,192466
OK,117,69,785,117,2014-10-02T19:50:00,0,28283170,192466
OK,131,62,785,131,2014-10-02T19:55:00,1,28283600,192466
OK,131,62,785,131,2014-10-02T20:00:00,0,28283970,192466
OK,131,62,785,131,2014-10-02T20:10:00,0,28284419,192466
OK,131,62,785,131,2014-10-02T20:15:00,0,28285202,192466
OK,131,62,785,131,2014-10-02T20:20:00,0,28285638,192466